Home   Weather   São Luis   Past weeks

Flag for Brazil Past Weather in São Luis, Maranhão, Brazil — Yesterday and Last 2 Weeks

Now
86 °F

Partly sunny.


Feels Like: 92 °F
Forecast: 80 / 90 °F
Wind: 14 mph from East

Location: Sao Luiz Aeroporto

Current Time: Dec 9, 2016 at 10:41:30 am

Latest Report: Dec 9, 2016 at 10:00 am


Visibility: N/A

Pressure: 29.89 "Hg

Humidity: 62%

Dew Point: 72 °F

Location of São LuisLocation

Past Weather in São Luis — Graph

°F

São Luis Temperature Yesterday

Maximum temperature yesterday: 91 °F (at 12:00 pm)
Minimum temperature yesterday: 81 °F (at 12:00 am)
Average temperature yesterday: 84 °F

High & Low Weather Summary for the Past Weeks

 TemperatureHumidityPressure
High91 °F (Nov 24, 12:00 pm)79% (Nov 27, 6:00 am)29.92 "Hg (Nov 27, 6:00 am)
Low79 °F (Nov 27, 6:00 am)41% (Nov 29, 2:00 pm)29.74 "Hg (Nov 25, 3:00 pm)
Average84 °F65%29.84 "Hg
* Reported Nov 24 9:00 am — Dec 9 9:00 am, São Luis, Weather by CustomWeather, © 2016

Note: Actual official high and low records may vary slightly from our data, if they occured in-between our weather recording intervals... More about our weather records

Advertising

São Luis Weather History for the Previous 24 Hours

Scroll right to see more
 ConditionsComfort  
Time TempWeatherWind HumidityBarometerVisibility
9:00 am
Fri, Dec 9
86 °FScattered clouds.9 mph62%29.89 "HgN/A
8:00 am82 °FScattered clouds.10 mph74%29.89 "HgN/A
7:00 am81 °FScattered clouds.6 mph79%29.86 "HgN/A
6:00 am81 °FScattered clouds.3 mph74%29.83 "HgN/A
5:00 am81 °FClear.2 mph79%29.80 "Hg10 mi
4:00 am81 °FClear.7 mph79%29.80 "Hg10 mi
3:00 am81 °FClear.7 mph79%29.80 "Hg10 mi
2:00 am81 °FClear.12 mph79%29.80 "Hg10 mi
1:00 am81 °FClear.9 mph79%29.83 "Hg10 mi
12:00 am81 °FClear.8 mph79%29.83 "Hg10 mi
11:00 pm
Thu, Dec 8
81 °FClear.12 mph79%29.83 "Hg10 mi
10:00 pm82 °FClear.12 mph74%29.83 "Hg10 mi
9:00 pm82 °FPassing clouds.13 mph74%29.83 "HgN/A
8:00 pm82 °FPassing clouds.7 mph74%29.83 "HgN/A
7:00 pm82 °FPassing clouds.14 mph74%29.80 "HgN/A
6:00 pm84 °FPassing clouds.16 mph66%29.80 "HgN/A
5:00 pm86 °FScattered clouds.17 mph59%29.77 "HgN/A
4:00 pm88 °FScattered clouds.17 mph55%29.77 "HgN/A
3:00 pm90 °FScattered clouds.16 mph52%29.77 "HgN/A
2:00 pm90 °FScattered clouds.16 mph55%29.80 "HgN/A
1:00 pm91 °FScattered clouds.15 mph46%29.86 "HgN/A
12:00 pm91 °FScattered clouds.16 mph46%29.86 "HgN/A
11:00 am90 °FPartly sunny.15 mph49%29.89 "HgN/A
10:00 am88 °FPartly sunny.14 mph55%29.89 "HgN/A
Weather by CustomWeather, © 2016

See weather overviewHow to use our weather pages